User: anonymous   Login
Location: Caltech
(34.1382°N, 118.1253°W)
Time: 04:09:15
(UTC-08:00)
Language:

ALOS - Orbit

View from above orbital plane
View from above orbital plane
View from above satellite
View from above satellite

Ground track
Ground track

The orbit data is extracted from the following two-line orbital elements,

1 28931U 06002A   14327.23180683  .00001658  00000-0  34356-3 0  1120
2 28931 097.9630 019.5899 0002264 074.3617 285.7834 14.61474534470559
Epoch (UTC): 23 November 2014 05:33:48
Eccentricity: 0.0002264
inclination: 97.9630°
perigee height: 687 km
apogee height: 690 km
right ascension of ascending node: 19.5899°
argument of perigee: 74.3617°
revolutions per day: 14.61474534
mean anomaly at epoch: 285.7834°
orbit number at epoch: 47055

The dashed part of the orbit path shows where the satellite is in the earth's shadow,  

DLR